Location: Neuvy Saint Sepulchre
(46.5953°N, 1.8122°E)
Time: 10:40:49
(UTC+02:00)

ISS - Pass Details

Date: 28 April 2026
Orbit: 416 x 424 km, 51.6° (Epoch: 13 April)

Event Time Altitude Azimuth Distance (km) Brightness Sun altitude
Exits shadow 05:32:39 - 286° (WNW) 1,637 -1.1 -11.5°
Reaches altitude 10° 05:33:01 10° 288° (WNW) 1,499 -1.3 -11.4°
Maximum altitude 05:36:08 34° 355° (N) 718 -2.3 -11.0°
Drops below altitude 10° 05:39:15 10° 63° (ENE) 1,505 0.6 -10.6°
Sets 05:41:28 0° 73° (ENE) 2,371 1.8 -10.2°
